Time,TemperatureF,DewpointF,PressureIn,WindDirection,WindDirectionDegrees,WindSpeedMPH,WindSpeedGustMPH,Humidity,HourlyPrecipIn,Conditions,Clouds,dailyrainin,SoftwareType,DateUTC
2013-06-24 00:02:00,59.0,58.0,29.64,NW,304,0.0,0.0,98,0.03,,,0.36,,2013-06-24 07:02:00,
2013-06-24 00:13:00,58.0,57.0,29.63,NW,304,0.0,0.0,98,0.04,,,0.37,,2013-06-24 07:13:00,
2013-06-24 00:24:00,58.0,57.0,29.63,NW,304,0.0,0.0,98,0.04,,,0.37,,2013-06-24 07:24:00,
2013-06-24 00:34:00,58.0,57.0,29.63,NW,304,0.0,0.0,98,0.05,,,0.38,,2013-06-24 07:34:00,
2013-06-24 00:45:00,58.0,57.0,29.63,NW,304,0.0,0.0,98,0.04,,,0.38,,2013-06-24 07:45:00,
2013-06-24 00:53:00,58.0,57.0,29.62,NW,304,0.0,0.0,98,0.02,,,0.38,,2013-06-24 07:53:00,
2013-06-24 01:33:00,58.0,57.0,29.62,NW,304,0.0,0.0,98,0.00,,,0.38,,2013-06-24 08:33:00,
2013-06-24 01:44:00,58.0,57.0,29.62,NNW,336,0.0,0.0,98,0.01,,,0.39,,2013-06-24 08:44:00,
2013-06-24 01:52:00,58.0,57.0,29.61,NNW,336,0.0,0.0,98,0.01,,,0.39,,2013-06-24 08:52:00,
2013-06-24 02:02:00,58.0,57.0,29.61,NNW,336,0.0,0.0,98,0.01,,,0.39,,2013-06-24 09:02:00,
2013-06-24 02:13:00,58.0,57.0,29.61,NNW,336,0.0,0.0,98,0.01,,,0.39,,2013-06-24 09:13:00,
2013-06-24 02:22:00,58.0,57.0,29.60,NNW,336,0.0,0.0,98,0.01,,,0.39,,2013-06-24 09:22:00,
2013-06-24 02:33:00,58.0,57.0,29.60,NNW,336,0.0,0.0,98,0.01,,,0.39,,2013-06-24 09:33:00,
2013-06-24 02:44:00,58.0,57.0,29.60,NNW,336,0.0,0.0,98,0.00,,,0.39,,2013-06-24 09:44:00,
2013-06-24 03:02:00,57.0,56.0,29.60,NNW,336,0.0,0.0,98,0.00,,,0.39,,2013-06-24 10:02:00,
2013-06-24 03:13:00,57.0,56.0,29.60,NNW,336,0.0,0.0,98,0.00,,,0.39,,2013-06-24 10:13:00,
2013-06-24 03:22:00,57.0,56.0,29.60,NNW,336,0.0,0.0,98,0.00,,,0.39,,2013-06-24 10:22:00,
2013-06-24 03:34:00,58.0,57.0,29.60,NNW,336,0.0,0.0,98,0.11,,,0.50,,2013-06-24 10:34:00,
2013-06-24 03:54:00,57.0,56.0,29.61,SW,236,0.0,0.0,98,0.36,,,0.75,,2013-06-24 10:54:00,
2013-06-24 04:02:00,57.0,56.0,29.61,SW,236,0.0,0.0,98,0.36,,,0.75,,2013-06-24 11:02:00,
2013-06-24 04:12:00,57.0,56.0,29.62,West,278,0.0,0.0,98,0.36,,,0.75,,2013-06-24 11:12:00,
2013-06-24 04:24:00,57.0,56.0,29.62,West,278,0.0,0.0,98,0.36,,,0.75,,2013-06-24 11:24:00,
2013-06-24 04:33:00,57.0,56.0,29.62,NNE,23,0.0,0.0,98,0.25,,,0.76,,2013-06-24 11:33:00,
2013-06-24 04:43:00,56.0,55.0,29.63,SE,140,0.0,0.0,98,0.03,,,0.76,,2013-06-24 11:43:00,
2013-06-24 04:52:00,56.0,55.0,29.64,SSW,207,0.0,0.0,98,0.01,,,0.76,,2013-06-24 11:52:00,
2013-06-24 05:02:00,56.0,55.0,29.64,SSW,207,0.0,0.0,98,0.01,,,0.76,,2013-06-24 12:02:00,
2013-06-24 05:13:00,55.0,54.0,29.64,ESE,107,0.0,0.0,97,0.01,,,0.76,,2013-06-24 12:13:00,
2013-06-24 05:34:00,55.0,54.0,29.65,NNE,23,0.0,0.0,97,0.00,,,0.76,,2013-06-24 12:34:00,
2013-06-24 05:44:00,54.0,53.0,29.66,WNW,297,0.0,0.0,97,0.00,,,0.76,,2013-06-24 12:44:00,
2013-06-24 06:02:00,54.0,53.0,29.66,WSW,257,0.0,0.0,97,0.00,,,0.76,,2013-06-24 13:02:00,
2013-06-24 06:32:00,54.0,53.0,29.67,SW,224,0.0,2.0,97,0.00,,,0.76,,2013-06-24 13:32:00,
2013-06-24 06:42:00,54.0,53.0,29.67,SE,127,0.0,1.0,97,0.00,,,0.76,,2013-06-24 13:42:00,
2013-06-24 06:53:00,54.0,53.0,29.67,SE,127,0.0,1.0,97,0.00,,,0.76,,2013-06-24 13:53:00,
2013-06-24 07:02:00,54.0,53.0,29.67,ESE,123,0.0,0.0,97,0.00,,,0.76,,2013-06-24 14:02:00,
2013-06-24 07:22:00,54.0,53.0,29.67,ESE,123,0.0,0.0,97,0.00,,,0.76,,2013-06-24 14:22:00,
2013-06-24 07:34:00,54.0,53.0,29.67,ESE,123,0.0,0.0,97,0.00,,,0.75,,2013-06-24 14:34:00,
2013-06-24 07:43:00,54.0,53.0,29.68,ESE,123,0.0,0.0,97,0.00,,,0.75,,2013-06-24 14:43:00,
2013-06-24 07:53:00,54.0,53.0,29.68,SE,124,0.0,0.0,97,0.00,,,0.75,,2013-06-24 14:53:00,
2013-06-24 08:12:00,55.0,54.0,29.68,SE,126,0.0,0.0,97,0.00,,,0.75,,2013-06-24 15:12:00,
2013-06-24 08:34:00,56.0,55.0,29.68,SW,236,0.0,0.0,97,0.00,,,0.74,,2013-06-24 15:34:00,
2013-06-24 08:44:00,57.0,56.0,29.68,SW,221,0.0,0.0,96,0.00,,,0.74,,2013-06-24 15:44:00,
2013-06-24 09:02:00,58.0,56.0,29.68,SSE,155,0.0,3.0,94,0.00,,,0.74,,2013-06-24 16:02:00,
2013-06-24 09:11:00,57.0,55.0,29.69,SW,222,0.0,2.0,94,0.00,,,0.74,,2013-06-24 16:11:00,
2013-06-24 09:22:00,57.0,55.0,29.69,SE,139,0.0,2.0,92,0.00,,,0.74,,2013-06-24 16:22:00,
2013-06-24 09:34:00,57.0,55.0,29.69,SE,139,0.0,2.0,92,0.00,,,0.74,,2013-06-24 16:34:00,
2013-06-24 09:43:00,57.0,55.0,29.69,SSE,151,0.0,2.0,92,0.00,,,0.74,,2013-06-24 16:43:00,
2013-06-24 09:53:00,57.0,55.0,29.69,SSE,151,0.0,2.0,92,0.00,,,0.74,,2013-06-24 16:53:00,
2013-06-24 10:02:00,57.0,55.0,29.69,ESE,107,0.0,3.0,92,0.00,,,0.74,,2013-06-24 17:02:00,
2013-06-24 10:12:00,58.0,56.0,29.69,West,260,0.0,2.0,92,0.00,,,0.74,,2013-06-24 17:12:00,
2013-06-24 10:22:00,58.0,56.0,29.69,SSW,211,0.0,5.0,92,0.00,,,0.74,,2013-06-24 17:22:00,
2013-06-24 10:33:00,58.0,56.0,29.69,SSW,211,0.0,5.0,92,0.00,,,0.74,,2013-06-24 17:33:00,
2013-06-24 10:43:00,58.0,56.0,29.69,East,93,0.0,5.0,92,0.00,,,0.74,,2013-06-24 17:43:00,
2013-06-24 10:54:00,59.0,56.0,29.69,SSW,212,0.0,6.0,90,0.00,,,0.74,,2013-06-24 17:54:00,
2013-06-24 11:01:00,59.0,56.0,29.69,SSW,212,0.0,6.0,90,0.00,,,0.74,,2013-06-24 18:01:00,
2013-06-24 11:44:00,60.0,55.0,29.69,WSW,255,0.0,3.0,85,0.00,,,0.74,,2013-06-24 18:44:00,
2013-06-24 11:53:00,60.0,55.0,29.69,WSW,255,0.0,3.0,85,0.00,,,0.74,,2013-06-24 18:53:00,
2013-06-24 12:02:00,61.0,56.0,29.69,ESE,111,0.0,3.0,84,0.00,,,0.74,,2013-06-24 19:02:00,
2013-06-24 12:12:00,62.0,56.0,29.69,SE,129,1.0,4.0,82,0.00,,,0.74,,2013-06-24 19:12:00,
2013-06-24 12:34:00,61.0,56.0,29.69,ESE,102,0.0,2.0,83,0.00,,,0.74,,2013-06-24 19:34:00,
2013-06-24 12:42:00,61.0,55.0,29.69,NE,48,1.0,7.0,82,0.00,,,0.74,,2013-06-24 19:42:00,
2013-06-24 12:53:00,61.0,55.0,29.69,NE,48,1.0,7.0,82,0.00,,,0.74,,2013-06-24 19:53:00,
2013-06-24 13:02:00,62.0,56.0,29.69,NE,47,0.0,3.0,80,0.00,,,0.74,,2013-06-24 20:02:00,
2013-06-24 13:11:00,65.0,58.0,29.68,SW,225,1.0,4.0,78,0.00,,,0.74,,2013-06-24 20:11:00,
2013-06-24 13:22:00,65.0,58.0,29.68,SW,225,1.0,4.0,78,0.00,,,0.74,,2013-06-24 20:22:00,
2013-06-24 13:33:00,65.0,56.0,29.68,SW,222,0.0,3.0,74,0.00,,,0.74,,2013-06-24 20:33:00,
2013-06-24 13:43:00,64.0,56.0,29.68,ENE,63,0.0,3.0,76,0.00,,,0.74,,2013-06-24 20:43:00,
2013-06-24 14:02:00,64.0,56.0,29.68,West,264,1.0,4.0,75,0.00,,,0.74,,2013-06-24 21:02:00,
2013-06-24 14:12:00,64.0,57.0,29.68,West,266,0.0,4.0,79,0.00,,,0.74,,2013-06-24 21:12:00,
2013-06-24 14:33:00,63.0,57.0,29.68,South,191,0.0,3.0,80,0.00,,,0.73,,2013-06-24 21:33:00,
2013-06-24 14:44:00,63.0,56.0,29.68,WSW,242,1.0,6.0,78,0.00,,,0.73,,2013-06-24 21:44:00,
2013-06-24 14:52:00,63.0,56.0,29.68,WSW,242,1.0,6.0,78,0.00,,,0.73,,2013-06-24 21:52:00,
2013-06-24 15:13:00,67.0,56.0,29.68,NNW,330,0.0,3.0,69,0.00,,,0.73,,2013-06-24 22:13:00,
2013-06-24 15:21:00,67.0,56.0,29.68,NNW,330,0.0,3.0,69,0.00,,,0.73,,2013-06-24 22:21:00,
2013-06-24 15:34:00,67.0,57.0,29.68,SSW,213,0.0,3.0,71,0.00,,,0.72,,2013-06-24 22:34:00,
2013-06-24 15:44:00,66.0,56.0,29.68,SW,215,0.0,3.0,70,0.00,,,0.72,,2013-06-24 22:44:00,
2013-06-24 15:53:00,66.0,56.0,29.68,SW,215,0.0,3.0,70,0.00,,,0.72,,2013-06-24 22:53:00,
2013-06-24 16:02:00,67.0,57.0,29.68,NW,306,0.0,5.0,70,0.00,,,0.72,,2013-06-24 23:02:00,
2013-06-24 16:11:00,67.0,56.0,29.67,SW,235,0.0,5.0,67,0.00,,,0.72,,2013-06-24 23:11:00,
2013-06-24 16:43:00,64.0,57.0,29.68,East,82,0.0,1.0,77,0.00,,,0.71,,2013-06-24 23:43:00,
2013-06-24 17:01:00,63.0,56.0,29.69,SW,217,0.0,4.0,79,0.00,,,0.71,,2013-06-25 00:01:00,
2013-06-24 17:33:00,61.0,55.0,29.70,SE,146,0.0,2.0,81,0.00,,,0.70,,2013-06-25 00:33:00,
2013-06-24 17:44:00,60.0,56.0,29.70,SW,227,0.0,0.0,88,0.00,,,0.70,,2013-06-25 00:44:00,
2013-06-24 18:33:00,60.0,56.0,29.70,South,188,0.0,0.0,87,0.00,,,0.60,,2013-06-25 01:33:00,
2013-06-24 18:44:00,60.0,56.0,29.70,South,190,0.0,0.0,87,0.00,,,0.60,,2013-06-25 01:44:00,
2013-06-24 18:52:00,60.0,56.0,29.70,South,189,0.0,0.0,87,0.00,,,0.60,,2013-06-25 01:52:00,
2013-06-24 19:02:00,60.0,56.0,29.70,South,189,0.0,0.0,87,0.00,,,0.60,,2013-06-25 02:02:00,
2013-06-24 19:22:00,60.0,55.0,29.70,SW,214,0.0,0.0,83,0.00,,,0.60,,2013-06-25 02:22:00,
2013-06-24 19:34:00,60.0,56.0,29.70,North,354,0.0,1.0,88,0.00,,,0.43,,2013-06-25 02:34:00,
2013-06-24 19:43:00,59.0,56.0,29.71,WSW,238,0.0,0.0,89,0.00,,,0.43,,2013-06-25 02:43:00,
2013-06-24 20:46:00,58.0,56.0,29.70,WSW,238,0.0,0.0,92,0.00,,,0.43,,2013-06-25 03:46:00,
2013-06-24 21:01:00,57.0,55.0,29.70,WSW,238,0.0,0.0,92,0.00,,,0.43,,2013-06-25 04:01:00,
2013-06-24 21:11:00,57.0,55.0,29.70,WSW,238,0.0,0.0,93,0.00,,,0.43,,2013-06-25 04:11:00,
2013-06-24 21:33:00,57.0,55.0,29.70,WSW,237,0.0,0.0,94,0.00,,,0.43,,2013-06-25 04:33:00,
2013-06-24 21:42:00,57.0,55.0,29.70,WSW,238,0.0,0.0,94,0.00,,,0.43,,2013-06-25 04:42:00,
2013-06-24 21:52:00,57.0,55.0,29.70,WSW,238,0.0,0.0,94,0.00,,,0.43,,2013-06-25 04:52:00,
2013-06-24 22:01:00,56.0,55.0,29.70,WSW,238,0.0,0.0,95,0.00,,,0.43,,2013-06-25 05:01:00,
2013-06-24 22:11:00,56.0,55.0,29.70,WSW,237,0.0,0.0,95,0.00,,,0.43,,2013-06-25 05:11:00,
2013-06-24 22:32:00,56.0,55.0,29.70,WSW,237,0.0,0.0,96,0.00,,,0.43,,2013-06-25 05:32:00,
2013-06-24 22:44:00,56.0,55.0,29.70,WSW,238,0.0,0.0,96,0.00,,,0.43,,2013-06-25 05:44:00,
2013-06-24 22:52:00,56.0,55.0,29.70,WSW,238,0.0,0.0,96,0.00,,,0.43,,2013-06-25 05:52:00,
2013-06-24 23:01:00,56.0,55.0,29.70,WSW,237,0.0,0.0,96,0.00,,,0.43,,2013-06-25 06:01:00,
2013-06-24 23:11:00,55.0,54.0,29.69,WSW,237,0.0,0.0,96,0.00,,,0.43,,2013-06-25 06:11:00,
2013-06-24 23:33:00,55.0,54.0,29.69,WSW,237,0.0,0.0,97,0.00,,,0.43,,2013-06-25 06:33:00,
2013-06-24 23:43:00,55.0,54.0,29.69,WSW,238,0.0,0.0,97,0.00,,,0.43,,2013-06-25 06:43:00,